星链-35439(STARLINK-35439)

导读

STARLINK-35439是美国星链星座的卫星,星链是美国太空探索技术公司打造的低轨卫星互联网项目。该卫星于2025年11月11日发射,承担为全球提供高速互联网接入服务的任务,属于星链网络扩容的组成部分,助力完成大规模低轨星座组网布局。

基本信息
目录编号:
66431
目录名称:
STARLINK-35439
国际标识:
2025-259K
轨道中心:
EARTH
卫星名称:
星链-35439
卫星全名:
星链-35439(STARLINK-35439)
卫星状态:
在轨 (已飞行214 天)
发射日期:
2025-11-11 UTC
国别 :
美国 (US)
星等 :
--
轨道信息
数据来源 国际轨道数据 AOE轨道数据
星历时间 2026-06-12T10:32:56+0800
1天前
查看轨道信息
2026-06-10T06:00:00+0800
3天前
查看轨道信息
半长轴 6861.131km 6861.195km
偏心率 0.0001508 0.000121
轨道倾角 43.005° 42.999°
近地点辐角 272.909° 237.588°
升交点赤经 100.914° 113.276°
平近点角 87.159° 307.494°
近地点 481.959km 482.227km
远地点 484.029km 483.889km
周期 94.266分钟 94.267分钟
每日圈数 15.275985 15.275771
详细信息
固有亮度:
5
最大亮度:
2.5
卫星平台:
Starlink V1.0
覆盖范围:
全球
运营商:
太空探索技术公司
运营商所在国:
美国
制造商(研发单位):
太空探索技术公司
制造商所在国:
美国
使用方式:
暂无
卫星简介
Starlink 计划是 SpaceX 推出的全球卫星互联网项目,通过发射低轨道卫星,为全球尤其是偏远地区提供高速、低延迟的互联网服务。自 2019 年起,Starlink 已部署数千颗卫星,旨在缩小全球数字鸿沟,推动互联网普及。该项目还为军事、航空等行业提供通信支持,带来广泛经济效益。
2D轨道图
3D轨道图
轨道高度分析图
轨道倾角分析图
轨道综合分析图
查看轨道综合分析图